Temperature
17 18 17 17 17 15 14 14 14 14 14 14 14 14 16 17 16 16 16 15 15 15 14 14 14 13 13 12 12 12 11 11 11 11 11 11 11 11 11 11 11 11 11 11
18 18 18 18 17 16 15 15 14 14 14 14 16 16 16 16 17 16 16 16 15 15 15 14 14 13 13 13 12 12 11 11 11 11 11 11 11 11 11 11 11 11 11 11
16 17 18 18 17 16 16 15 15 15 15 15 15 15 17 17 17 17 17 16 16 15 15 14 14 14 13 13 12 12 12 11 11 11 11 11 11 11 11 11 11 11 11 11
14 17 19 18 18 17 17 16 15 15 15 16 17 18 19 19 18 18 17 17 16 15 15 15 14 14 13 13 12 12 12 11 11 11 11 11 11 11 11 11 11 11 11 11
13 16 16 18 18 17 18 18 17 15 16 17 17 17 18 19 19 18 18 17 16 16 15 15 14 14 13 13 13 12 12 12 11 11 11 11 11 11 11 11 11 11 11 11
13 17 18 18 19 19 19 19 19 18 17 17 16 14 16 20 19 19 18 17 16 16 15 15 15 14 14 13 13 12 12 12 11 11 11 11 11 11 11 11 11 11 11 11
14 16 15 16 18 19 19 18 20 20 19 18 17 17 20 20 20 19 18 17 17 16 16 15 15 14 14 14 13 13 12 12 12 11 11 11 11 11 11 11 11 11 11 11
12 15 17 18 17 17 18 21 21 21 21 20 21 21 20 20 19 19 18 18 17 16 16 16 15 15 14 14 14 13 13 12 12 11 11 11 11 11 11 11 11 11 11 11
13 16 18 18 18 20 20 20 21 21 21 21 21 20 20 20 19 19 18 18 17 17 16 16 16 15 15 14 14 13 13 13 12 12 11 11 11 11 11 11 11 11 11 11
13 15 17 18 18 19 20 20 21 21 21 21 21 21 20 20 20 19 19 18 18 17 17 17 16 16 15 15 14 14 13 13 13 12 12 11 11 11 11 11 11 11 11 11
14 14 17 19 18 19 20 21 21 21 21 21 21 21 20 20 20 19 19 18 18 18 17 17 17 16 16 15 14 14 14 13 13 12 12 12 12 11 11 11 11 11 11 11
14 14 13 16 16 18 19 20 20 21 21 20 20 20 20 20 20 19 19 18 18 18 18 17 17 17 16 16 15 15 14 14 13 13 12 12 12 12 11 11 11 11 11 11
13 14 14 15 16 17 18 19 19 20 20 20 20 20 19 19 19 19 19 18 18 18 18 18 17 17 17 16 16 15 15 14 14 13 13 12 12 12 12 11 11 11 11 11
13 14 14 14 15 16 17 18 18 19 18 18 19 19 19 19 19 19 19 19 18 18 18 18 18 17 17 16 16 16 15 15 14 14 13 13 12 12 12 12 12 11 11 11
13 14 13 14 15 15 16 17 18 18 18 18 18 18 18 18 18 18 18 18 18 18 18 18 18 18 17 17 16 16 16 15 15 14 14 13 13 12 12 12 12 12 11 11
12 13 13 14 14 14 15 15 16 15 15 16 16 16 17 17 17 18 18 18 18 18 18 18 17 18 17 17 17 16 16 16 15 15 14 14 13 13 12 12 12 12 12 12
12 12 12 12 12 12 13 13 13 13 14 14 14 15 15 16 17 17 17 17 17 17 17 17 17 17 17 17 17 17 16 16 15 15 14 14 14 13 13 12 12 12 12 12
11 11 10 11 11 11 11 11 12 12 12 12 13 14 14 15 15 15 15 16 16 17 16 16 16 17 17 17 17 16 16 16 16 15 15 14 14 13 13 13 12 12 12 12
10 10 9 9 10 10 10 10 10 10 11 11 12 12 12 13 13 13 14 14 15 15 16 16 16 16 16 16 16 16 16 16 16 15 15 15 14 14 13 13 13 12 12 12
9 9 9 9 9 9 9 9 9 9 10 10 10 11 11 11 12 12 12 13 12 12 13 14 14 15 15 16 16 16 16 16 16 15 15 15 14 14 14 13 13 13 12 12
8 8 8 8 8 8 8 8 8 8 8 9 9 9 9 9 10 10 11 11 11 12 12 13 13 14 14 14 15 15 15 15 15 15 15 15 14 14 14 14 13 13 13 12
8 8 8 7 7 7 7 7 7 7 7 7 8 8 8 8 8 9 9 9 9 10 11 11 12 12 12 13 14 14 14 15 15 15 15 15 14 14 14 14 13 13 13 13
7 7 7 7 7 7 6 6 6 6 6 6 6 6 6 6 7 7 7 8 8 8 9 9 10 10 11 12 13 13 13 13 13 14 14 14 14 14 14 13 13 13 13 13
7 6 6 6 6 6 6 6 6 6 6 6 6 5 5 6 6 6 6 6 7 7 7 8 8 9 10 10 11 11 12 12 12 12 12 13 13 13 13 13 13 13 13 13
6 6 6 6 6 6 5 5 5 5 5 5 5 5 5 5 5 5 5 5 6 6 6 6 7 7 8 8 9 9 10 10 10 11 11 11 12 12 12 12 12 12 12 12
6 6 6 6 6 5 5 5 5 5 5 5 5 5 5 5 4 4 5 5 5 5 5 5 5 6 6 6 7 7 8 8 9 9 9 10 10 11 11 11 12 12 12 12
6 6 6 6 5 5 5 5 5 5 5 5 5 5 4 4 4 4 4 4 4 4 4 4 4 5 5 5 5 6 6 6 7 7 8 8 9 9 10 10 10 11 11 11
Wind_Speed
4 3 4 5 6 8 8 8 8 8 8 11 9 9 9 8 7 7 7 7 7 6 5 5 4 4 3 3 3 3 3 4 5 6 6 7 7 8 8 8 8 7 8 8
2 2 3 4 7 8 8 6 8 8 10 10 7 4 6 8 8 8 9 8 8 7 6 5 5 4 3 3 2 2 3 4 5 6 6 7 7 7 8 8 8 8 8 8
2 4 3 6 7 9 7 8 8 9 9 5 4 7 9 10 9 10 10 9 8 7 6 6 5 4 3 2 1 1 2 4 4 5 6 6 6 7 8 8 8 8 8 8
1 2 4 8 4 7 7 8 10 9 8 7 8 7 7 8 10 11 10 9 8 7 6 5 4 3 2 1 0 1 2 3 4 4 5 6 6 6 6 5 6 6 8 8
3 0 7 8 2 6 4 6 6 9 9 5 1 2 5 8 10 11 10 9 8 7 6 5 5 4 3 1 1 1 2 3 3 3 4 5 6 5 5 5 5 6 6 8
4 1 4 6 3 3 3 5 5 7 7 4 5 0 6 6 8 9 8 7 7 6 5 5 5 5 4 3 2 3 4 3 3 2 2 3 4 4 3 3 4 5 6 7
4 3 8 8 3 3 2 6 5 5 6 8 8 8 5 3 5 7 8 8 7 6 6 6 6 6 5 5 6 6 4 2 2 2 2 2 3 3 3 3 4 5 5 6
5 3 7 4 5 6 7 4 3 3 5 8 10 7 4 4 6 6 7 7 7 7 7 6 7 7 7 7 7 4 3 2 2 2 2 1 1 2 3 3 4 4 5 5
8 7 5 2 5 4 3 4 4 3 5 6 7 6 6 5 6 7 7 7 7 7 7 6 7 8 9 8 6 5 4 4 3 3 2 1 1 1 2 2 2 3 3 4
4 6 4 4 4 5 5 5 6 5 4 4 6 6 6 6 6 6 7 7 6 7 8 8 8 9 10 7 6 6 6 5 4 3 3 2 1 1 1 1 1 2 2 3
4 5 6 5 6 9 7 5 5 4 2 3 5 5 5 6 7 7 7 6 6 8 9 10 9 9 9 8 7 7 7 6 5 4 4 3 3 3 3 4 4 3 2 2
5 2 2 5 8 10 8 7 6 5 4 3 2 5 5 6 6 6 7 6 7 8 10 10 9 9 9 8 9 8 7 7 5 5 4 4 3 4 5 6 6 7 7 5
4 4 4 5 7 9 7 8 6 5 5 5 4 3 4 4 4 4 5 6 8 10 11 10 9 10 9 9 10 10 9 8 6 6 5 5 4 4 4 4 5 6 7 8
3 1 2 5 6 9 7 7 6 7 7 7 6 5 4 4 4 4 6 8 8 8 9 9 9 11 10 9 10 11 10 10 8 7 6 6 6 6 5 4 4 4 5 7
5 4 3 2 5 8 8 8 11 12 11 11 9 7 7 6 6 7 7 6 5 6 7 7 9 12 8 9 11 11 10 8 8 7 7 6 6 6 5 6 5 5 4 4
3 5 6 7 9 9 10 11 11 11 10 10 10 10 8 7 6 7 6 5 4 7 9 8 10 12 8 8 10 10 10 13 11 8 7 6 6 6 6 6 6 6 6 5
5 4 5 6 8 8 9 8 8 8 9 10 10 10 9 9 9 10 10 7 6 7 7 7 10 10 7 8 10 9 9 10 14 9 8 8 7 8 8 7 7 7 7 7
6 6 5 4 4 6 7 8 8 9 9 9 9 9 10 10 10 11 11 10 7 7 7 8 9 9 7 8 8 8 8 9 9 9 9 9 8 8 8 8 8 9 7 6
7 7 6 6 5 5 5 6 7 7 8 9 9 9 9 9 9 10 10 9 10 11 12 12 15 10 8 9 9 7 8 9 9 9 9 11 10 8 8 8 8 9 8 7
6 6 6 5 5 5 5 5 6 7 8 9 9 10 11 11 11 11 9 7 7 8 12 14 12 9 9 9 9 6 8 10 10 9 9 9 9 9 9 9 9 9 8 8
6 5 5 5 4 5 5 5 5 7 7 8 9 9 9 10 11 10 10 9 11 12 14 16 11 10 9 10 9 6 8 9 9 9 9 10 10 10 10 10 10 9 9 8
4 3 3 3 4 4 4 4 5 6 6 7 8 8 9 10 10 9 7 7 11 18 13 10 10 14 17 14 6 6 7 8 9 8 9 9 9 10 10 10 10 10 9 9
3 2 2 1 2 2 4 4 4 4 5 6 6 7 7 7 6 7 9 9 10 17 13 10 17 23 22 12 7 6 6 7 8 8 8 9 9 10 10 10 10 9 9 9
3 2 1 0 0 1 3 4 4 4 4 5 5 5 5 6 6 5 6 12 17 17 11 15 22 24 20 10 8 7 7 6 6 7 7 7 7 8 8 9 9 9 9 10
3 2 2 1 1 2 3 4 4 4 5 5 6 6 4 3 4 6 8 9 14 14 10 15 21 22 14 11 11 10 8 7 7 6 6 6 6 6 7 7 8 8 8 9
4 3 3 4 4 4 3 3 3 4 4 4 5 5 5 5 5 6 6 8 10 12 10 8 10 13 10 11 11 11 10 10 9 7 6 6 6 6 6 6 8 8 8 8
3 3 2 3 3 4 3 3 3 4 4 4 5 6 6 5 5 6 7 7 7 7 7 8 8 8 8 9 9 10 9 9 9 8 7 6 6 5 6 6 6 6 6 6
Wind_Direction
221 224 179 208 198 177 186 194 206 241 245 262 255 236 232 229 229 234 245 249 248 252 266 275 280 291 298 308 324 340 352 350 344 341 345 351 355 355 358 6 9 3 7 7
12 10 214 250 236 203 215 214 231 260 273 258 258 227 225 225 222 229 237 241 243 246 255 261 260 266 277 296 312 339 346 338 339 347 352 356 356 359 5 9 9 13 12 10
309 325 15 284 243 197 212 212 198 225 246 260 243 230 225 221 219 225 230 232 233 236 241 248 247 237 239 266 300 345 334 335 344 348 351 351 357 7 10 9 12 15 13 13
91 42 259 247 253 188 211 245 218 231 247 236 235 245 241 217 212 224 225 225 227 227 234 238 228 214 208 214 257 318 324 329 338 346 345 348 1 7 5 5 10 12 11 10
105 248 290 300 248 173 189 281 227 224 248 246 224 2 297 228 209 218 218 214 216 216 217 218 212 197 181 202 244 289 298 306 318 334 342 350 355 354 357 7 12 13 10 13
117 148 255 257 284 178 122 298 268 210 231 184 125 56 273 244 206 215 213 208 210 207 201 209 208 177 178 211 234 256 263 275 296 314 330 338 339 341 349 3 7 10 16 14
148 219 265 252 250 130 106 261 274 210 209 174 189 212 242 249 205 205 205 206 200 194 203 214 190 172 194 217 235 243 249 266 293 304 302 310 334 345 351 4 16 18 13 9
148 185 261 249 153 177 224 256 267 234 209 203 225 241 252 237 219 206 203 204 195 197 216 212 182 179 205 227 235 230 223 247 275 292 306 323 343 345 359 12 19 12 9 3
186 208 246 247 218 260 260 261 265 252 244 221 231 240 237 234 226 217 210 208 199 201 217 215 194 190 210 230 217 205 212 234 254 273 287 302 307 329 346 4 12 0 4 358
244 268 271 273 288 305 278 259 274 267 260 211 227 242 237 233 226 222 219 213 203 199 214 225 212 207 218 222 197 197 215 230 236 244 260 266 262 253 257 281 309 328 338 336
251 292 322 351 1 335 317 300 305 305 271 240 233 248 237 234 230 225 222 214 200 206 219 228 218 217 220 210 191 202 217 225 227 228 235 243 246 238 234 236 218 223 241 247
215 264 274 298 335 341 342 343 339 342 346 333 246 256 251 243 238 228 225 215 212 219 227 233 222 224 222 203 192 199 214 222 221 222 225 227 241 270 252 240 251 239 226 216
248 288 262 285 331 346 348 354 3 16 0 344 328 290 269 261 255 242 237 226 225 227 230 231 225 230 226 202 194 201 211 216 213 214 217 219 219 230 265 282 264 254 244 235
314 345 58 13 347 345 356 1 20 30 18 6 354 345 328 301 292 267 252 244 239 237 236 231 228 237 231 201 198 208 213 218 212 213 213 215 216 217 221 238 268 278 263 246
22 47 68 14 11 15 16 24 33 24 12 7 5 1 350 332 306 285 276 272 257 248 246 238 236 246 233 202 204 210 212 216 214 211 211 212 213 214 216 223 234 250 268 271
65 61 57 51 38 26 27 29 28 13 5 2 1 355 344 330 315 310 312 306 274 261 257 247 246 250 233 208 211 214 216 219 209 208 209 208 209 212 217 221 228 236 244 245
105 71 46 43 35 29 27 23 17 7 3 1 353 347 350 355 355 347 336 321 289 274 274 267 264 266 243 217 213 218 216 219 213 208 210 210 210 214 217 218 223 231 238 232
102 99 90 78 58 38 25 19 16 11 5 353 351 1 6 5 353 340 334 333 334 325 316 303 295 289 265 235 224 223 217 214 208 210 213 213 214 214 213 217 223 230 240 239
92 87 77 67 60 54 34 19 10 6 3 3 7 7 3 357 348 341 342 353 356 343 332 322 313 303 282 257 238 228 222 218 215 215 213 215 216 215 214 218 223 226 229 226
90 85 80 68 55 51 38 19 12 15 10 9 12 11 7 359 353 348 347 351 345 327 322 327 324 312 298 284 257 235 229 225 222 219 215 214 216 218 218 220 222 225 225 225
101 90 78 64 50 40 30 17 18 15 7 11 16 8 358 351 352 352 353 348 340 336 334 335 335 324 316 308 280 249 236 232 227 222 219 218 220 221 221 221 222 224 225 225
114 95 75 57 44 25 8 8 12 8 6 7 7 2 359 355 352 350 348 337 330 338 341 335 334 333 334 322 296 266 249 241 236 230 224 222 221 223 225 223 223 224 223 222
141 126 94 51 26 352 350 358 0 358 355 351 348 347 343 335 337 344 339 335 334 343 345 338 341 343 343 336 321 298 274 258 249 242 236 231 227 225 226 226 226 224 222 221
164 169 191 258 24 13 345 327 329 329 324 319 318 319 322 327 327 322 310 328 343 347 346 343 350 353 352 347 337 328 311 292 275 262 252 245 239 234 230 229 228 227 225 224
190 202 208 208 252 264 272 294 312 316 319 316 313 311 308 295 296 310 319 326 340 348 343 346 353 356 356 348 346 340 332 320 309 293 274 262 253 247 243 237 233 232 229 228
198 212 224 225 228 240 251 262 274 285 294 303 306 303 305 303 301 307 315 321 328 340 341 338 341 348 348 347 346 345 341 337 334 324 309 293 277 265 259 252 246 240 237 234
215 221 235 260 257 236 234 239 251 269 270 270 283 291 298 303 305 310 313 316 319 323 324 327 331 335 337 338 340 342 342 341 339 335 331 323 313 298 285 272 265 257 248 241
Height
1547 1545 1547 1547 1549 1554 1557 1560 1564 1556 1552 1540 1535 1533 1532 1533 1535 1536 1537 1537 1538 1537 1537 1536 1535 1533 1531 1529 1527 1524 1522 1519 1516 1514 1511 1508 1505 1501 1498 1495 1492 1490 1487 1485
1546 1545 1545 1546 1545 1548 1551 1551 1552 1550 1546 1531 1529 1529 1530 1531 1532 1533 1534 1535 1536 1536 1535 1535 1534 1532 1531 1529 1527 1525 1522 1520 1517 1515 1512 1509 1506 1504 1501 1498 1495 1493 1490 1487
1554 1549 1546 1549 1540 1542 1542 1541 1542 1545 1537 1528 1528 1527 1526 1527 1529 1530 1531 1532 1533 1534 1534 1533 1533 1532 1530 1528 1527 1525 1523 1520 1518 1516 1513 1511 1508 1506 1503 1501 1498 1495 1492 1490
1558 1552 1556 1544 1531 1532 1535 1533 1533 1531 1527 1526 1525 1524 1525 1525 1526 1527 1529 1530 1531 1532 1532 1532 1532 1531 1529 1528 1526 1524 1523 1521 1519 1517 1515 1513 1510 1508 1506 1503 1501 1498 1495 1492
1563 1559 1555 1537 1529 1530 1533 1531 1524 1525 1523 1523 1524 1524 1523 1522 1523 1525 1526 1528 1529 1530 1530 1530 1530 1530 1529 1527 1526 1524 1523 1521 1519 1517 1516 1514 1512 1510 1508 1506 1503 1500 1498 1495
1561 1556 1555 1538 1526 1526 1530 1531 1521 1520 1520 1522 1523 1528 1523 1520 1521 1522 1524 1525 1527 1528 1528 1529 1529 1528 1527 1526 1525 1524 1523 1521 1520 1518 1516 1515 1513 1511 1509 1507 1505 1503 1500 1498
1559 1557 1550 1529 1525 1527 1538 1535 1519 1518 1518 1519 1520 1520 1519 1519 1519 1520 1522 1523 1525 1526 1526 1527 1527 1527 1526 1526 1525 1524 1523 1521 1520 1518 1517 1515 1514 1512 1510 1508 1506 1504 1503 1501
1558 1557 1548 1523 1525 1528 1526 1519 1518 1517 1517 1517 1516 1517 1517 1517 1518 1519 1520 1521 1522 1523 1524 1525 1525 1525 1525 1524 1524 1523 1522 1521 1520 1519 1517 1516 1514 1513 1511 1509 1508 1506 1504 1502
1541 1537 1525 1522 1521 1520 1519 1518 1517 1516 1515 1515 1515 1515 1515 1516 1516 1517 1518 1519 1520 1521 1522 1523 1523 1523 1523 1523 1523 1522 1521 1520 1519 1518 1517 1516 1514 1513 1512 1510 1509 1507 1505 1504
1532 1524 1521 1520 1519 1517 1516 1516 1515 1514 1514 1513 1513 1513 1513 1513 1514 1515 1516 1517 1518 1518 1519 1520 1520 1521 1521 1521 1521 1520 1520 1519 1518 1517 1516 1515 1514 1513 1512 1510 1509 1508 1506 1505
1527 1522 1519 1517 1517 1515 1514 1513 1513 1513 1512 1512 1511 1511 1511 1511 1511 1512 1513 1514 1515 1515 1516 1516 1517 1518 1518 1518 1518 1518 1517 1517 1516 1516 1515 1514 1513 1512 1511 1510 1509 1508 1507 1505
1525 1522 1522 1519 1517 1515 1513 1512 1512 1511 1510 1510 1510 1509 1509 1509 1509 1509 1510 1511 1511 1512 1512 1513 1514 1514 1515 1515 1515 1515 1514 1514 1514 1513 1513 1512 1511 1510 1509 1509 1508 1507 1506 1505
1520 1519 1519 1519 1517 1515 1513 1512 1511 1510 1509 1509 1508 1508 1507 1507 1507 1507 1507 1507 1507 1508 1509 1509 1510 1510 1511 1512 1511 1511 1511 1511 1511 1510 1510 1509 1509 1508 1507 1507 1506 1506 1505 1504
1517 1517 1517 1517 1516 1514 1513 1512 1511 1510 1508 1507 1506 1506 1505 1504 1504 1503 1503 1503 1504 1504 1504 1505 1505 1505 1507 1507 1507 1507 1507 1507 1507 1506 1506 1506 1505 1505 1505 1504 1504 1503 1503 1502
1516 1516 1516 1516 1515 1514 1512 1511 1509 1508 1507 1506 1505 1503 1502 1501 1500 1500 1500 1499 1499 1499 1499 1499 1499 1500 1501 1501 1501 1502 1502 1502 1502 1502 1502 1502 1501 1501 1501 1501 1500 1500 1500 1500
1514 1515 1515 1514 1513 1512 1510 1509 1508 1507 1506 1505 1503 1502 1501 1499 1498 1497 1496 1495 1494 1493 1493 1494 1493 1494 1495 1495 1495 1495 1496 1496 1496 1497 1497 1497 1497 1496 1496 1496 1496 1496 1496 1496
1512 1513 1513 1512 1512 1511 1510 1509 1508 1507 1506 1504 1502 1501 1499 1497 1495 1493 1492 1491 1490 1489 1489 1488 1488 1488 1488 1488 1488 1488 1489 1489 1490 1490 1490 1491 1491 1491 1491 1491 1491 1491 1491 1492
1512 1512 1512 1512 1512 1511 1511 1510 1508 1507 1505 1504 1502 1500 1497 1495 1493 1491 1489 1487 1486 1485 1484 1482 1481 1481 1481 1481 1481 1481 1481 1482 1482 1482 1483 1484 1484 1485 1485 1485 1485 1485 1486 1486
1511 1512 1512 1512 1512 1511 1510 1509 1508 1506 1505 1503 1501 1498 1496 1494 1492 1490 1487 1484 1482 1479 1478 1477 1475 1474 1473 1473 1473 1473 1473 1474 1474 1475 1476 1476 1477 1477 1478 1478 1478 1479 1479 1480
1511 1511 1512 1511 1511 1510 1509 1508 1507 1505 1504 1502 1499 1497 1495 1492 1490 1488 1485 1483 1480 1478 1475 1472 1470 1468 1466 1466 1465 1465 1465 1465 1466 1467 1467 1468 1469 1469 1470 1471 1471 1472 1473 1473
1509 1510 1510 1510 1510 1509 1508 1507 1506 1504 1502 1500 1498 1496 1494 1491 1489 1486 1482 1479 1477 1474 1471 1468 1466 1463 1461 1459 1458 1457 1456 1457 1457 1458 1459 1459 1460 1461 1462 1463 1463 1464 1465 1466
1508 1508 1509 1509 1508 1508 1507 1506 1505 1503 1501 1499 1497 1495 1493 1490 1487 1484 1482 1479 1475 1471 1468 1465 1461 1459 1456 1453 1451 1449 1449 1448 1449 1449 1450 1451 1452 1452 1453 1454 1455 1456 1457 1458
1506 1507 1507 1507 1507 1506 1506 1505 1504 1502 1500 1498 1496 1494 1491 1489 1486 1482 1479 1476 1473 1469 1466 1462 1458 1455 1451 1448 1445 1443 1441 1441 1440 1441 1441 1442 1443 1444 1444 1445 1446 1447 1448 1449
1504 1505 1505 1505 1505 1505 1504 1503 1502 1501 1499 1497 1495 1493 1490 1487 1484 1482 1479 1475 1471 1467 1464 1460 1456 1452 1448 1444 1441 1438 1436 1434 1433 1433 1433 1433 1434 1435 1435 1436 1437 1438 1439 1440
1502 1503 1503 1503 1503 1502 1502 1501 1500 1499 1497 1495 1493 1491 1488 1486 1483 1480 1476 1473 1469 1465 1461 1457 1453 1449 1445 1442 1438 1435 1432 1430 1428 1426 1426 1425 1426 1426 1427 1427 1428 1429 1430 1431
1500 1500 1501 1501 1500 1500 1499 1498 1497 1496 1494 1492 1491 1489 1486 1484 1481 1478 1475 1471 1468 1464 1460 1456 1452 1448 1444 1440 1436 1432 1429 1426 1423 1421 1420 1419 1418 1418 1418 1419 1419 1420 1421 1422
1497 1497 1497 1497 1497 1497 1496 1495 1494 1493 1491 1489 1488 1486 1483 1481 1478 1475 1472 1469 1466 1462 1459 1455 1451 1447 1443 1439 1435 1431 1427 1423 1420 1417 1415 1413 1412 1411 1411 1411 1411 1412 1412 1413